Weather History for Pensacola NAS, FL

Change the Weather History Date:

Saturday, October 6, 2012

  Actual Average Record
Temperature  
Mean Temperature 78 °F -  
Max Temperature 88 °F 79 °F 91 °F (1998)
Min Temperature 68 °F 63 °F 52 °F (2010)
Cooling Degree Days 12    
Growing Degree Days 28 (Base 50)    
Moisture  
Dew Point 70 °F    
Average Humidity 91    
Maximum Humidity 100    
Minimum Humidity 48    
Precipitation  
Precipitation 0.01 in - - ()
Sea Level Pressure  
Sea Level Pressure 29.99 in    
Wind  
Wind Speed 3 mph (NNW)    
Max Wind Speed 9 mph    
Max Gust Speed -    
Visibility 5 miles    
Events Fog , Rain    
Averages and records for this station are not official NWS values.
T = Trace of Precipitation, MM = Missing Value Source: NWS Daily Summary

Daily Weather History Graph

Daily Weather History Graph

Search for Another Location

Airport:

Trip Planner

Search our weather history database for the weather conditions in past years. The results will help you decide how hot, cold, wet, or windy it might be!

Date:

Astronomy

Oct. 06, 2012 Rise Set
Actual Time 6:46 AM CDT 6:27 PM CDT
Civil Twilight 6:22 AM CDT 6:51 PM CDT
Nautical Twilight 5:54 AM CDT 7:19 PM CDT
Astronomical Twilight 5:26 AM CDT 7:47 PM CDT
Moon 11:01 PM CDT (10/6) 12:21 PM CDT (10/6)
Length of Visible Light 12h 29m
Length of Day
11h 41m
Waning Gibbous, 65% of the Moon is Illuminated
Oct 6
Waning Gibbous
Oct 8
Last Quarter
Oct 15
New
Oct 21
First Quarter
Oct 29
Full

Hourly Weather History & Observations

Time (CDT) Temp. Heat Index Dew Point Humidity Pressure Visibility Wind Dir Wind Speed Gust Speed Precip Events Conditions
12:15 AM 69.8 °F - 69.8 °F 100% 30.02 in 6.0 mi NNW 3.5 mph - N/A   Mostly Cloudy
12:24 AM 69.8 °F - 69.8 °F 100% 30.02 in 5.0 mi Calm Calm - 0.00 in Rain Light Rain
12:40 AM 68.0 °F - 68.0 °F 100% 30.01 in 1.8 mi Calm Calm - 0.00 in   Clear
12:49 AM 68.0 °F - 68.0 °F 100% 30.01 in 0.2 mi Calm Calm - 0.00 in Fog Fog
12:56 AM 69.1 °F - 69.1 °F 100% 30.01 in 0.8 mi Calm Calm - 0.00 in   Clear
12:59 AM 69.8 °F - 69.8 °F 100% 30.01 in 2.5 mi Calm Calm - N/A   Clear
1:06 AM 69.8 °F - 69.8 °F 100% 30.01 in 5.0 mi NW 4.6 mph - N/A   Clear
1:36 AM 69.8 °F - 69.8 °F 100% 30.01 in 2.5 mi Calm Calm - 0.01 in   Scattered Clouds
1:41 AM 69.8 °F - 69.8 °F 100% 30.01 in 3.0 mi Calm Calm - 0.01 in   Mostly Cloudy
1:56 AM 71.1 °F - 71.1 °F 100% 30.01 in 4.0 mi NNW 3.5 mph - 0.01 in   Overcast
1:58 AM 71.6 °F - 71.6 °F 100% 30.00 in 2.5 mi NNW 3.5 mph - N/A   Overcast
2:03 AM 71.6 °F - 71.6 °F 100% 30.00 in 0.8 mi NNW 4.6 mph - N/A   Overcast
2:07 AM 71.6 °F - 71.6 °F 100% 30.00 in 0.2 mi NNW 4.6 mph - N/A Fog Fog
2:26 AM 71.6 °F - 71.6 °F 100% 29.99 in 0.5 mi NNW 3.5 mph - N/A Fog Fog
2:56 AM 71.1 °F - 71.1 °F 100% 29.99 in 0.2 mi North 3.5 mph - 0.00 in Fog Fog
3:15 AM 71.6 °F - 71.6 °F 100% 29.98 in 0.5 mi NNE 3.5 mph - N/A Fog Fog
3:23 AM 71.6 °F - 71.6 °F 100% 29.98 in 0.5 mi Calm Calm - N/A Fog Fog
3:30 AM 71.6 °F - 71.6 °F 100% 29.98 in 0.5 mi NNW 3.5 mph - N/A Fog Fog
3:49 AM 69.8 °F - 69.8 °F 100% 29.98 in 1.5 mi NNW 3.5 mph - N/A   Overcast
3:56 AM 70.0 °F - 70.0 °F 100% 29.99 in 1.2 mi NW 3.5 mph - N/A   Overcast
4:13 AM 69.8 °F - 69.8 °F 100% 29.98 in 0.8 mi NW 4.6 mph - N/A   Mist
4:23 AM 69.8 °F - 69.8 °F 100% 29.98 in 1.2 mi NW 3.5 mph - 0.00 in Rain Light Rain
4:48 AM 69.8 °F - 69.8 °F 100% 29.98 in 0.5 mi NW 3.5 mph - 0.00 in Fog Fog
4:56 AM 70.0 °F - 70.0 °F 100% 29.99 in 0.2 mi NNW 3.5 mph - 0.00 in Fog Fog
5:56 AM 71.1 °F - 71.1 °F 100% 30.00 in 0.2 mi NNW 4.6 mph - 0.00 in Fog Fog
6:14 AM 71.6 °F - 71.6 °F 100% 29.99 in 0.5 mi NNW 4.6 mph - N/A Fog Fog
6:32 AM 69.8 °F - 69.8 °F 100% 29.99 in 1.5 mi NNW 3.5 mph - N/A   Overcast
6:38 AM 69.8 °F - 69.8 °F 100% 29.99 in 3.0 mi NNW 3.5 mph - N/A   Overcast
6:56 AM 70.0 °F - 70.0 °F 100% 30.00 in 3.0 mi NNW 4.6 mph - N/A   Overcast
7:13 AM 69.8 °F - 69.8 °F 100% 30.00 in 1.5 mi NNW 3.5 mph - N/A   Overcast
7:22 AM 69.8 °F - 69.8 °F 100% 30.00 in 0.5 mi NNW 3.5 mph - N/A Fog Fog
7:30 AM 69.8 °F - 69.8 °F 100% 30.00 in 2.0 mi NNW 3.5 mph - N/A   Overcast
7:39 AM 69.8 °F - 69.8 °F 100% 30.00 in 5.0 mi NNW 4.6 mph - N/A   Overcast
7:56 AM 71.1 °F - 71.1 °F 100% 30.01 in 9.0 mi North 4.6 mph - N/A   Mostly Cloudy
8:09 AM 73.4 °F - 71.6 °F 94% 30.00 in 10.0 mi North 5.8 mph - N/A   Scattered Clouds
8:56 AM 75.9 °F - 73.0 °F 91% 30.01 in 10.0 mi North 4.6 mph - N/A   Clear
9:56 AM 81.0 °F 84.9 °F 71.1 °F 72% 30.01 in 10.0 mi NNW 6.9 mph - N/A   Clear
10:56 AM 82.9 °F 85.0 °F 66.0 °F 56% 30.01 in 10.0 mi North 6.9 mph - N/A   Clear
11:56 AM 84.9 °F 87.1 °F 66.0 °F 53% 30.00 in 10.0 mi Variable 5.8 mph - N/A   Partly Cloudy
12:56 PM 87.1 °F 88.9 °F 64.9 °F 48% 29.97 in 10.0 mi NNE 8.1 mph - N/A   Partly Cloudy
1:56 PM 86.0 °F 87.3 °F 64.0 °F 48% 29.94 in 10.0 mi Variable 5.8 mph - N/A   Scattered Clouds
2:56 PM 82.9 °F 86.5 °F 69.1 °F 63% 29.93 in 10.0 mi South 8.1 mph - N/A   Scattered Clouds
3:56 PM 82.9 °F 85.8 °F 68.0 °F 60% 29.92 in 10.0 mi SSW 5.8 mph - N/A   Scattered Clouds
4:56 PM 81.0 °F 84.4 °F 70.0 °F 69% 29.92 in 10.0 mi SSW 9.2 mph - N/A   Mostly Cloudy
5:56 PM 79.0 °F - 68.0 °F 69% 29.93 in 10.0 mi WSW 5.8 mph - N/A   Clear
6:56 PM 75.9 °F - 70.0 °F 82% 29.94 in 10.0 mi WSW 3.5 mph - N/A   Clear
7:56 PM 75.0 °F - 68.0 °F 79% 29.96 in 10.0 mi WSW 3.5 mph - N/A   Clear
8:56 PM 73.0 °F - 68.0 °F 84% 29.97 in 10.0 mi Calm Calm - N/A   Clear
9:56 PM 72.0 °F - 68.0 °F 87% 29.98 in 10.0 mi North 5.8 mph - N/A   Clear
10:56 PM 72.0 °F - 66.9 °F 84% 29.99 in 10.0 mi North 3.5 mph - N/A   Clear
11:56 PM 71.1 °F - 66.0 °F 84% 29.99 in 10.0 mi North 5.8 mph - N/A   Clear